Weather History for V.C. Bird, Antigua

Change the Weather History Date:

Saturday, November 10, 2012

  Actual Average Record
Temperature  
Mean Temperature 80 °F -  
Max Temperature 86 °F 83 °F 87 °F (1997)
Min Temperature 75 °F 74 °F 71 °F (2011)
Cooling Degree Days 16    
Growing Degree Days 30 (Base 50)    
Moisture  
Dew Point 75 °F    
Average Humidity 84    
Maximum Humidity 90    
Minimum Humidity 66    
Precipitation  
Precipitation 0.20 in - - ()
Sea Level Pressure  
Sea Level Pressure 29.88 in    
Wind  
Wind Speed 6 mph ()    
Max Wind Speed 20 mph    
Max Gust Speed -    
Visibility 8.9 miles    
Events Rain    
Averages and records for this station are not official NWS values.
T = Trace of Precipitation, MM = Missing Value Source: Averaged Metar Reports

Daily Weather History Graph

Daily Weather History Graph

Search for Another Location

Airport:

Trip Planner

Search our weather history database for the weather conditions in past years. The results will help you decide how hot, cold, wet, or windy it might be!

Date:

Astronomy

Nov. 10, 2012 Rise Set
Actual Time 6:09 AM AST 5:32 PM AST
Civil Twilight 5:46 AM AST 5:55 PM AST
Nautical Twilight 5:20 AM AST 6:21 PM AST
Astronomical Twilight 4:54 AM AST 6:47 PM AST
Moon 2:39 AM AST (11/10) 2:51 PM AST (11/10)
Length of Visible Light 12h 08m
Length of Day
11h 23m
Waning Crescent, 15% of the Moon is Illuminated
Nov 10
Waning Crescent
Nov 13
New
Nov 20
First Quarter
Nov 28
Full
Dec 6
Last Quarter

Hourly Weather History & Observations

Time (AST) Temp. Heat Index Dew Point Humidity Pressure Visibility Wind Dir Wind Speed Gust Speed Precip Events Conditions
12:00 AM 77.0 °F - 73.4 °F 89% 29.89 in 6.2 mi ESE 10.4 mph - N/A   Scattered Clouds
1:00 AM 77.0 °F - 73.4 °F 89% 29.86 in 6.2 mi Variable 2.3 mph - N/A   Scattered Clouds
2:00 AM 76 °F - 74 °F 90% 29.87 in 19 mi 2.3 mph - -   Partly Cloudy
2:00 AM 77.0 °F - 73.4 °F 89% 29.86 in 6.2 mi Variable 2.3 mph - N/A   Scattered Clouds
3:00 AM 77.0 °F - 73.4 °F 89% 29.83 in 6.2 mi ESE 6.9 mph - N/A   Scattered Clouds
4:00 AM 77.0 °F - 73.4 °F 89% 29.83 in 6.2 mi East 8.1 mph - N/A   Partly Cloudy
5:00 AM 78 °F - 74 °F 83% 29.85 in 19 mi ESE 8.1 mph - -   Scattered Clouds
5:00 AM 78.8 °F - 73.4 °F 83% 29.83 in 6.2 mi ESE 8.1 mph - N/A   Partly Cloudy
6:00 AM 77.0 °F - 73.4 °F 89% 29.86 in 6.2 mi ESE 6.9 mph - N/A   Scattered Clouds
7:00 AM 77.0 °F - 73.4 °F 89% 29.86 in 6.2 mi Variable 2.3 mph - N/A   Scattered Clouds
8:00 AM 81 °F - 76 °F 82% 29.89 in 19 mi SE 6.9 mph - -   Partly Cloudy
8:00 AM 80.6 °F 87.1 °F 77.0 °F 89% 29.89 in 6.2 mi SE 6.9 mph - N/A   Partly Cloudy
9:00 AM 84.2 °F 94.1 °F 77.0 °F 79% 29.89 in 6.2 mi ESE 9.2 mph - N/A   Scattered Clouds
10:00 AM 84.2 °F 92.3 °F 75.2 °F 74% 29.92 in 6.2 mi East 10.4 mph - N/A   Scattered Clouds
11:00 AM 85 °F - 75 °F 66% 29.91 in 17 mi East 9.2 mph - -   Mostly Cloudy
11:00 AM 84.2 °F 92.3 °F 75.2 °F 74% 29.89 in 6.2 mi East 9.2 mph - N/A   Mostly Cloudy
12:00 PM 82.4 °F 90.9 °F 77.0 °F 84% 29.89 in 6.2 mi East 4.6 mph - N/A Rain Light Rain Showers
1:00 PM 84.2 °F 92.3 °F 75.2 °F 74% 29.86 in 6.2 mi East 4.6 mph - N/A   Mostly Cloudy
2:00 PM 83 °F - 75 °F 71% 29.87 in 6 mi ESE 19.6 mph - - Rain Heavy Rain Showers
2:00 PM 82.4 °F 89.5 °F 75.2 °F 79% 29.86 in 6.2 mi ESE 19.6 mph - N/A Rain Rain Showers
3:00 PM 77.0 °F - 73.4 °F 89% 29.86 in 6.2 mi Variable 1.2 mph - N/A Rain Light Rain Showers
4:00 PM 82.4 °F 90.9 °F 77.0 °F 84% 29.86 in 6.2 mi ENE 3.5 mph - N/A   Scattered Clouds
5:00 PM 80 °F - 74 °F 76% 29.87 in 19 mi ENE 4.6 mph - -   Partly Cloudy
5:00 PM 80.6 °F 85.4 °F 73.4 °F 79% 29.86 in 6.2 mi ENE 4.6 mph - N/A   Scattered Clouds
6:00 PM 78.8 °F - 75.2 °F 89% 29.86 in 6.2 mi ENE 4.6 mph - N/A   Scattered Clouds
7:00 PM 78.8 °F - 75.2 °F 89% 29.89 in 6.2 mi NE 5.8 mph - N/A   Mostly Cloudy
8:00 PM 78 °F - 74 °F 85% 29.91 in 19 mi NE 6.9 mph - -   Partly Cloudy
8:00 PM 78.8 °F - 75.2 °F 89% 29.89 in 6.2 mi NE 6.9 mph - N/A   Partly Cloudy
9:00 PM 78.8 °F - 75.2 °F 89% 29.92 in 6.2 mi Variable 1.2 mph - N/A   Partly Cloudy
10:00 PM 78.8 °F - 73.4 °F 83% 29.92 in 6.2 mi Variable 2.3 mph - N/A   Scattered Clouds
11:00 PM 78 °F - 74 °F 84% 29.93 in 19 mi 2.3 mph - - Rain Light Rain Showers
11:00 PM 77.0 °F - 73.4 °F 89% 29.92 in 6.2 mi Variable 2.3 mph - N/A   Mostly Cloudy